Location: Recife
(8.0585°S, 34.8848°W)
Time: 10:43:05
(UTC-03:00)

Vanguard 2 - Pass Details

Date: 21 April 2026
Orbit: 554 x 2894 km, 32.9° (Epoch: 8 May)

Event Time Altitude Azimuth Distance (km) Brightness Sun altitude
Rises 07:17:22 0° 269° (W) 5,279 11.3 26.9°
Reaches altitude 10° 07:24:40 10° 298° (WNW) 3,568 10.6 28.6°
Maximum altitude 07:27:07 11° 314° (NW) 3,215 10.5 29.2°
Drops below altitude 10° 07:29:18 10° 331° (NNW) 3,084 10.6 29.7°
Sets 07:34:08 0° 6° (N) 3,532 11.2 30.8°
